NKS1378 KIAH-KFLL

Flight info

Callsign NKS1378
Flight time 1h 59m
Altitude 35000
Route MMUGS4 LLA DCT LEV Y290 OCHHO DCT VNECK TEEKY3
Aircraft A321/M-SDE3FGHIRWY/LB1

Departure

Time 2025-09-06 05:28
Airport George Bush Intercontinental Airport (KIAH)

Arrival

Time 2025-09-06 07:28
Airport Fort Lauderdale Hollywood International Airport (KFLL)
Time Latitude Longitude Altitude Speed Heading
2025-09-06 05:08 29.98483 -95.34895 107 ft 0 kts 312°
2025-09-06 05:17 29.98481 -95.34892 107 ft 3 kts 312°
2025-09-06 05:18 29.98443 -95.34844 105 ft 3 kts 312°
2025-09-06 05:19 29.98418 -95.34811 106 ft 3 kts 312°
2025-09-06 05:19 29.98393 -95.34780 106 ft 3 kts 312°
2025-09-06 05:20 29.98369 -95.34749 106 ft 3 kts 312°
2025-09-06 05:20 29.98363 -95.34742 107 ft 0 kts 312°
2025-09-06 05:21 29.98368 -95.34747 106 ft 1 kts 312°
2025-09-06 05:21 29.98378 -95.34804 107 ft 9 kts 272°
2025-09-06 05:22 29.98380 -95.35047 107 ft 11 kts 270°
2025-09-06 05:23 29.98411 -95.35218 107 ft 12 kts 322°
2025-09-06 05:23 29.98558 -95.35310 107 ft 13 kts 332°
2025-09-06 05:24 29.98718 -95.35408 107 ft 13 kts 332°
2025-09-06 05:24 29.98800 -95.35460 107 ft 13 kts 323°
2025-09-06 05:24 29.98837 -95.35646 107 ft 12 kts 269°
2025-09-06 05:25 29.98735 -95.35751 109 ft 11 kts 157°
2025-09-06 05:25 29.98719 -95.35743 108 ft 0 kts 154°
2025-09-06 05:26 29.98716 -95.35741 108 ft 2 kts 154°
2025-09-06 05:27 29.98007 -95.35309 109 ft 120 kts 152°
2025-09-06 05:27 29.97118 -95.34766 108 ft 167 kts 152°
2025-09-06 05:27 29.95207 -95.33266 1436 ft 155 kts 130°
2025-09-06 05:28 29.93838 -95.31173 2009 ft 181 kts 129°
2025-09-06 05:28 29.92135 -95.28619 2264 ft 221 kts 130°
2025-09-06 05:29 29.90034 -95.25608 2900 ft 252 kts 130°
2025-09-06 05:29 29.87822 -95.22391 4056 ft 260 kts 126°
2025-09-06 05:30 29.84641 -95.17214 5838 ft 268 kts 125°
2025-09-06 05:31 29.82618 -95.13579 6993 ft 273 kts 110°
2025-09-06 05:31 29.82280 -95.11416 7507 ft 278 kts 93°
2025-09-06 05:31 29.82115 -95.06911 8608 ft 285 kts 94°
2025-09-06 05:32 29.81927 -95.02296 9688 ft 292 kts 94°
2025-09-06 05:32 29.81636 -94.97500 10289 ft 315 kts 101°
2025-09-06 05:33 29.80816 -94.92249 10551 ft 349 kts 101°
2025-09-06 05:33 29.79936 -94.86643 11363 ft 361 kts 101°
2025-09-06 05:34 29.78601 -94.77977 12715 ft 372 kts 100°
2025-09-06 05:34 29.78145 -94.75029 13170 ft 376 kts 100°
2025-09-06 05:35 29.77219 -94.69044 14034 ft 384 kts 100°
2025-09-06 05:35 29.76318 -94.62934 14807 ft 391 kts 99°
2025-09-06 05:36 29.74951 -94.53556 15961 ft 401 kts 100°
2025-09-06 05:36 29.74482 -94.50376 16318 ft 405 kts 100°
2025-09-06 05:37 29.73041 -94.40674 17418 ft 415 kts 100°
2025-09-06 05:37 29.72551 -94.37390 17796 ft 419 kts 100°
2025-09-06 05:38 29.71222 -94.27343 18803 ft 428 kts 97°
2025-09-06 05:39 29.70520 -94.20497 19466 ft 434 kts 97°
2025-09-06 05:39 29.69796 -94.13620 20160 ft 438 kts 98°
2025-09-06 05:40 29.69003 -94.06593 20835 ft 443 kts 98°
2025-09-06 05:40 29.68674 -94.03097 21145 ft 446 kts 92°
2025-09-06 05:40 29.68601 -93.95925 21763 ft 451 kts 90°
2025-09-06 05:41 29.68541 -93.88676 22365 ft 456 kts 90°
2025-09-06 05:41 29.68475 -93.81341 22953 ft 461 kts 90°
2025-09-06 05:42 29.68444 -93.77651 23254 ft 462 kts 90°
2025-09-06 05:42 29.68331 -93.66479 24022 ft 468 kts 90°
2025-09-06 05:43 29.68245 -93.58965 24503 ft 472 kts 90°
2025-09-06 05:43 29.68154 -93.51396 24979 ft 475 kts 90°
2025-09-06 05:44 29.67968 -93.36093 25921 ft 482 kts 90°
2025-09-06 05:46 29.67520 -93.04869 27702 ft 495 kts 90°
2025-09-06 05:49 29.66933 -92.68848 29540 ft 508 kts 90°
2025-09-06 05:51 29.66231 -92.37738 31505 ft 504 kts 96°
2025-09-06 05:53 29.59959 -92.06587 33560 ft 497 kts 103°
2025-09-06 05:55 29.53531 -91.75862 35048 ft 493 kts 103°
2025-09-06 05:56 29.47842 -91.49061 35058 ft 504 kts 103°
2025-09-06 05:59 29.40459 -91.14567 35062 ft 482 kts 103°
2025-09-06 06:00 29.34834 -90.88608 35049 ft 479 kts 103°
2025-09-06 06:02 29.28340 -90.59020 35052 ft 479 kts 104°
2025-09-06 06:05 29.20958 -90.25709 35075 ft 479 kts 104°
2025-09-06 06:07 29.12480 -89.96939 35057 ft 478 kts 112°
2025-09-06 06:08 29.03329 -89.72484 35035 ft 475 kts 113°
2025-09-06 06:11 28.91482 -89.41161 35041 ft 485 kts 113°
2025-09-06 06:12 28.82089 -89.16480 35051 ft 484 kts 112°
2025-09-06 06:15 28.69950 -88.84863 35054 ft 484 kts 112°
2025-09-06 06:16 28.60490 -88.60412 35052 ft 482 kts 112°
2025-09-06 06:19 28.48301 -88.29107 35041 ft 481 kts 112°
2025-09-06 06:21 28.37608 -88.01275 35044 ft 479 kts 106°
2025-09-06 06:23 28.29322 -87.72585 35045 ft 477 kts 106°
2025-09-06 06:25 28.20995 -87.44016 35036 ft 476 kts 106°
2025-09-06 06:27 28.12659 -87.15588 35036 ft 475 kts 107°
2025-09-06 06:29 28.04245 -86.87239 35035 ft 474 kts 107°
2025-09-06 06:31 27.95959 -86.58963 35030 ft 473 kts 106°
2025-09-06 06:32 27.88785 -86.34281 35031 ft 472 kts 107°
2025-09-06 06:35 27.79845 -86.03796 35024 ft 472 kts 106°
2025-09-06 06:36 27.72572 -85.79198 35026 ft 472 kts 107°
2025-09-06 06:39 27.63156 -85.47661 35025 ft 472 kts 107°
2025-09-06 06:40 27.57173 -85.22787 35027 ft 469 kts 99°
2025-09-06 06:43 27.51484 -84.90360 35030 ft 468 kts 99°
2025-09-06 06:44 27.47020 -84.65233 35030 ft 467 kts 99°
2025-09-06 06:47 27.42064 -84.33019 35023 ft 461 kts 89°
2025-09-06 06:48 27.41370 -84.07810 35030 ft 461 kts 90°
2025-09-06 06:50 27.40524 -83.78956 35002 ft 463 kts 91°
2025-09-06 06:52 27.39603 -83.49898 35005 ft 466 kts 93°
2025-09-06 06:54 27.38608 -83.20557 35012 ft 471 kts 93°
2025-09-06 06:56 27.32722 -82.92270 34596 ft 461 kts 110°
2025-09-06 06:58 27.23635 -82.66179 32032 ft 441 kts 119°
2025-09-06 07:00 27.12836 -82.41740 30156 ft 433 kts 118°
2025-09-06 07:03 27.00981 -82.15108 27836 ft 416 kts 118°
2025-09-06 07:04 26.89902 -81.96926 26148 ft 401 kts 135°
2025-09-06 07:07 26.72678 -81.76649 25343 ft 399 kts 135°
2025-09-06 07:07 26.68828 -81.72189 24549 ft 396 kts 135°
2025-09-06 07:08 26.65009 -81.67767 23778 ft 392 kts 135°
2025-09-06 07:08 26.61501 -81.63160 22903 ft 387 kts 127°
2025-09-06 07:09 26.58305 -81.58383 22066 ft 381 kts 127°
2025-09-06 07:09 26.56720 -81.56029 21652 ft 378 kts 127°
2025-09-06 07:09 26.53575 -81.51370 20836 ft 372 kts 127°
2025-09-06 07:10 26.48975 -81.44546 19645 ft 364 kts 127°
2025-09-06 07:11 26.45954 -81.40061 18857 ft 359 kts 127°
2025-09-06 07:11 26.42965 -81.35646 18065 ft 354 kts 127°
2025-09-06 07:12 26.39997 -81.31335 17019 ft 346 kts 129°
2025-09-06 07:12 26.36930 -81.27240 15972 ft 342 kts 130°
2025-09-06 07:12 26.35394 -81.25226 15574 ft 340 kts 130°
2025-09-06 07:13 26.32367 -81.21229 14792 ft 335 kts 130°
2025-09-06 07:13 26.29394 -81.17266 14040 ft 331 kts 130°
2025-09-06 07:14 26.24988 -81.11429 12834 ft 325 kts 130°
2025-09-06 07:15 26.22088 -81.07621 12063 ft 320 kts 130°
2025-09-06 07:15 26.19223 -81.03854 11277 ft 316 kts 130°
2025-09-06 07:16 26.16475 -81.00246 10447 ft 298 kts 130°
2025-09-06 07:16 26.14456 -80.96301 9761 ft 295 kts 104°
2025-09-06 07:16 26.14065 -80.94062 9380 ft 295 kts 101°
2025-09-06 07:17 26.13334 -80.89598 8659 ft 292 kts 101°
2025-09-06 07:17 26.12601 -80.85173 7945 ft 290 kts 101°
2025-09-06 07:18 26.11510 -80.78611 6910 ft 286 kts 101°
2025-09-06 07:19 26.10784 -80.74306 6660 ft 283 kts 101°
2025-09-06 07:19 26.10060 -80.70013 6363 ft 282 kts 101°
2025-09-06 07:20 26.09338 -80.65740 6067 ft 280 kts 101°
2025-09-06 07:20 26.08977 -80.63610 5914 ft 280 kts 102°
2025-09-06 07:20 26.08259 -80.59363 5629 ft 279 kts 102°
2025-09-06 07:21 26.07662 -80.55823 5390 ft 278 kts 102°
2025-09-06 07:21 26.06950 -80.51631 5099 ft 277 kts 102°
2025-09-06 07:22 26.06718 -80.45239 4364 ft 268 kts 91°
2025-09-06 07:23 26.06711 -80.41142 3828 ft 264 kts 91°
2025-09-06 07:23 26.06704 -80.39098 3586 ft 263 kts 91°
2025-09-06 07:23 26.06688 -80.35142 3160 ft 249 kts 91°
2025-09-06 07:24 26.06671 -80.31369 2674 ft 235 kts 91°
2025-09-06 07:25 26.06645 -80.26320 1844 ft 188 kts 92°
2025-09-06 07:25 26.06632 -80.23673 1376 ft 162 kts 92°
2025-09-06 07:25 26.06622 -80.22429 1163 ft 159 kts 92°
2025-09-06 07:26 26.06629 -80.18796 530 ft 154 kts 92°
2025-09-06 07:27 26.06594 -80.16423 148 ft 153 kts 91°
2025-09-06 07:27 26.06581 -80.14362 50 ft 92 kts 90°
2025-09-06 07:27 26.06580 -80.13908 75 ft 35 kts 84°
2025-09-06 07:28 26.06681 -80.13722 65 ft 1 kts 44°
2025-09-06 07:28 26.06729 -80.13737 70 ft 7 kts 307°
2025-09-06 07:29 26.06743 -80.13872 67 ft 11 kts 270°
2025-09-06 07:29 26.06712 -80.14056 66 ft 14 kts 245°
2025-09-06 07:30 26.06676 -80.14552 42 ft 23 kts 269°
2025-09-06 07:31 26.06752 -80.14908 16 ft 14 kts 34°
2025-09-06 07:31 26.06765 -80.14684 15 ft 16 kts 90°
2025-09-06 07:32 26.06771 -80.14437 16 ft 17 kts 91°
2025-09-06 07:32 26.06816 -80.14203 16 ft 14 kts 84°
2025-09-06 07:33 26.06924 -80.14083 16 ft 9 kts 358°
2025-09-06 07:33 26.06959 -80.14138 16 ft 2 kts 283°
2025-09-06 07:34 26.06960 -80.14142 16 ft 0 kts 283°